Weather History for PADK - October, 2012

Change the Weather History Date:

Wednesday, October 17, 2012

  Actual Average Record
Temperature  
Mean Temperature 38 °F -  
Max Temperature 42 °F 47 °F 54 °F (1961)
Min Temperature 33 °F 38 °F 28 °F (1964)
Degree Days  
Heating Degree Days 28    
Moisture  
Dew Point 31 °F    
Average Humidity 79    
Maximum Humidity 93    
Minimum Humidity 49    
Precipitation  
Precipitation 0.00 in - - ()
Sea Level Pressure  
Sea Level Pressure 30.49 in    
Wind  
Wind Speed 2 mph (NE)    
Max Wind Speed 13 mph    
Max Gust Speed 18 mph    
Visibility 10 miles    
Events      
Averages and records for this station are not official NWS values.
T = Trace of Precipitation, MM = Missing Value Source: NWS Daily Summary

Daily Weather History Graph

Daily Weather History Graph

Search for Another Location

Airport or City:

Trip Planner

Search our weather history database for the weather conditions in past years. The results will help you decide how hot, cold, wet, or windy it might be!

Date:

Astronomy

Oct. 17, 2012 Rise Set
Actual Time 9:15 AM HDT 7:46 PM HDT
Civil Twilight 8:41 AM HDT 8:20 PM HDT
Nautical Twilight 8:02 AM HDT 8:59 PM HDT
Astronomical Twilight 7:23 AM HDT 9:38 PM HDT
Moon 12:31 PM HDT (10/17) 9:10 PM HDT (10/17)
Length of Visible Light 11h 39m
Length of Day
10h 30m
Waxing Crescent, 8% of the Moon is Illuminated
Oct 17
Waxing Crescent
Oct 21
First Quarter
Oct 29
Full
Nov 6
Last Quarter
Nov 13
New

Hourly Weather History & Observations

Time (HDT) Temp. Windchill Dew Point Humidity Pressure Visibility Wind Dir Wind Speed Gust Speed Precip Events Conditions
12:16 AM 35.6 °F - 33.8 °F 93% 30.41 in 10.0 mi Calm Calm - N/A   Overcast
12:36 AM 35.6 °F - 32.0 °F 87% 30.42 in 10.0 mi Calm Calm - N/A   Overcast
12:56 AM 35.6 °F - 32.0 °F 87% 30.42 in 10.0 mi Calm Calm - N/A   Overcast
1:16 AM 35.6 °F - 33.8 °F 93% 30.42 in 10.0 mi Calm Calm - N/A   Overcast
1:36 AM 35.6 °F 32.8 °F 33.8 °F 93% 30.43 in 10.0 mi North 3.5 mph - N/A   Overcast
1:56 AM 35.6 °F - 33.8 °F 93% 30.43 in 10.0 mi Calm Calm - N/A   Overcast
2:16 AM 35.6 °F - 33.8 °F 93% 30.43 in 10.0 mi Calm Calm - N/A   Overcast
2:36 AM 35.6 °F 31.7 °F 33.8 °F 93% 30.43 in 10.0 mi NW 4.6 mph - N/A   Overcast
2:56 AM 35.6 °F - 33.8 °F 93% 30.43 in 10.0 mi Calm Calm - N/A   Overcast
3:16 AM 37.4 °F - 32.0 °F 81% 30.44 in 10.0 mi Calm Calm - N/A   Overcast
3:36 AM 37.4 °F 32.1 °F 33.8 °F 87% 30.44 in 10.0 mi SE 6.9 mph - N/A   Overcast
3:56 AM 37.4 °F 31.4 °F 30.2 °F 75% 30.44 in 10.0 mi SE 8.1 mph - N/A   Overcast
4:16 AM 37.4 °F 32.8 °F 30.2 °F 75% 30.44 in 10.0 mi East 5.8 mph - N/A   Overcast
4:36 AM 37.4 °F 34.9 °F 32.0 °F 81% 30.44 in 10.0 mi WNW 3.5 mph - N/A   Overcast
4:56 AM 35.6 °F - 32.0 °F 87% 30.44 in 10.0 mi Calm Calm - N/A   Overcast
5:16 AM 35.6 °F - 30.2 °F 81% 30.44 in 10.0 mi Calm Calm - N/A   Overcast
5:36 AM 35.6 °F - 32.0 °F 87% 30.44 in 10.0 mi Calm Calm - N/A   Overcast
5:56 AM 35.6 °F - 32.0 °F 87% 30.44 in 10.0 mi Calm Calm - N/A   Overcast
6:16 AM 35.6 °F 28.0 °F 33.8 °F 93% 30.44 in 10.0 mi NE 10.4 mph - N/A   Overcast
6:36 AM 35.6 °F 31.7 °F 32.0 °F 87% 30.44 in 9.0 mi NNE 4.6 mph - N/A   Mostly Cloudy
6:56 AM 35.6 °F - 32.0 °F 87% 30.44 in 10.0 mi Calm Calm - N/A   Mostly Cloudy
7:16 AM 35.6 °F - 33.8 °F 93% 30.44 in 10.0 mi Calm Calm - N/A   Overcast
7:36 AM 35.6 °F - 32.0 °F 87% 30.45 in 4.0 mi Calm Calm - N/A   Overcast
7:56 AM 35.6 °F - 33.8 °F 93% 30.45 in 4.0 mi Calm Calm - N/A   Overcast
8:16 AM 35.6 °F 30.7 °F 32.0 °F 87% 30.46 in 9.0 mi West 5.8 mph - N/A   Overcast
8:36 AM 33.8 °F 30.8 °F 32.0 °F 93% 30.46 in 10.0 mi West 3.5 mph - N/A   Overcast
8:56 AM 33.8 °F 30.8 °F 32.0 °F 93% 30.47 in 10.0 mi WSW 3.5 mph - N/A   Overcast
9:16 AM 33.8 °F - 32.0 °F 93% 30.47 in 10.0 mi Calm Calm - N/A   Overcast
9:36 AM 33.8 °F - 32.0 °F 93% 30.48 in 10.0 mi Calm Calm - N/A   Overcast
9:56 AM 35.6 °F - 33.8 °F 93% 30.48 in 10.0 mi Calm Calm - N/A   Overcast
10:16 AM 35.6 °F - 33.8 °F 93% 30.49 in 10.0 mi Calm Calm - N/A   Overcast
10:36 AM 35.6 °F - 33.8 °F 93% 30.49 in 10.0 mi Calm Calm - N/A   Overcast
10:56 AM 37.4 °F 34.9 °F 35.6 °F 93% 30.50 in 10.0 mi North 3.5 mph - N/A   Overcast
11:16 AM 39.2 °F - 33.8 °F 81% 30.50 in 10.0 mi Calm Calm - N/A   Overcast
11:36 AM 39.2 °F - 32.0 °F 75% 30.51 in 10.0 mi Calm Calm - N/A   Mostly Cloudy
11:56 AM 39.2 °F 37.0 °F 33.8 °F 81% 30.51 in 10.0 mi East 3.5 mph - N/A   Overcast
12:16 PM 41.0 °F 35.8 °F 33.8 °F 76% 30.51 in 10.0 mi NNW 8.1 mph - N/A   Overcast
1:16 PM 41.0 °F 33.9 °F 32.0 °F 70% 30.51 in 10.0 mi East 12.7 mph 18.4 mph N/A   Overcast
1:36 PM 41.0 °F - 30.2 °F 65% 30.51 in 10.0 mi Calm Calm - N/A   Overcast
1:56 PM 41.0 °F 38.0 °F 32.0 °F 70% 30.51 in 10.0 mi East 4.6 mph - N/A   Overcast
2:16 PM 41.0 °F 38.0 °F 32.0 °F 70% 30.51 in 10.0 mi ENE 4.6 mph - N/A   Overcast
2:36 PM 41.0 °F 37.1 °F 30.2 °F 65% 30.51 in 10.0 mi East 5.8 mph - N/A   Overcast
2:56 PM 41.0 °F 37.1 °F 28.4 °F 61% 30.51 in 10.0 mi East 5.8 mph - N/A   Overcast
3:16 PM 42.8 °F 39.3 °F 28.4 °F 57% 30.51 in 10.0 mi East 5.8 mph - N/A   Overcast
3:36 PM 42.8 °F 38.6 °F 28.4 °F 57% 30.51 in 10.0 mi ENE 6.9 mph - N/A   Overcast
3:56 PM 41.0 °F 38.0 °F 26.6 °F 57% 30.51 in 10.0 mi NE 4.6 mph - N/A   Overcast
4:16 PM 41.0 °F - 24.8 °F 53% 30.51 in 10.0 mi Calm Calm - N/A   Overcast
4:36 PM 42.8 °F 41.1 °F 26.6 °F 53% 30.51 in 10.0 mi ENE 3.5 mph - N/A   Overcast
4:56 PM 42.8 °F 39.3 °F 26.6 °F 53% 30.51 in 10.0 mi East 5.8 mph - N/A   Overcast
5:16 PM 41.0 °F 37.1 °F 26.6 °F 57% 30.51 in 10.0 mi ENE 5.8 mph - N/A   Overcast
5:36 PM 41.0 °F 38.0 °F 26.6 °F 57% 30.51 in 10.0 mi ENE 4.6 mph - N/A   Overcast
5:56 PM 41.0 °F 39.0 °F 28.4 °F 61% 30.51 in 10.0 mi East 3.5 mph - N/A   Overcast
6:16 PM 41.0 °F 39.0 °F 28.4 °F 61% 30.51 in 10.0 mi East 3.5 mph - N/A   Overcast
6:36 PM 41.0 °F 37.1 °F 28.4 °F 61% 30.52 in 10.0 mi East 5.8 mph - N/A   Overcast
6:56 PM 39.2 °F 37.0 °F 30.2 °F 70% 30.52 in 10.0 mi East 3.5 mph - N/A   Overcast
7:16 PM 39.2 °F - 30.2 °F 70% 30.52 in 10.0 mi Calm Calm - N/A   Overcast
7:36 PM 39.2 °F 33.0 °F 30.2 °F 70% 30.53 in 10.0 mi ENE 9.2 mph - N/A   Overcast
7:56 PM 37.4 °F 34.9 °F 30.2 °F 75% 30.53 in 10.0 mi West 3.5 mph - N/A   Overcast
8:16 PM 37.4 °F 32.8 °F 32.0 °F 81% 30.53 in 10.0 mi WSW 5.8 mph - N/A   Overcast
8:36 PM 37.4 °F 32.8 °F 32.0 °F 81% 30.53 in 10.0 mi West 5.8 mph - N/A   Overcast
8:56 PM 37.4 °F 32.8 °F 30.2 °F 75% 30.54 in 10.0 mi West 5.8 mph - N/A   Overcast
9:16 PM 35.6 °F 31.7 °F 30.2 °F 81% 30.55 in 10.0 mi North 4.6 mph - N/A   Overcast
9:36 PM 37.4 °F 33.8 °F 30.2 °F 75% 30.55 in 10.0 mi NW 4.6 mph - N/A   Overcast
9:56 PM 37.4 °F 33.8 °F 30.2 °F 75% 30.55 in 10.0 mi North 4.6 mph - N/A   Overcast
10:16 PM 35.6 °F 31.7 °F 32.0 °F 87% 30.56 in 10.0 mi North 4.6 mph - N/A   Overcast
10:36 PM 35.6 °F - 30.2 °F 81% 30.56 in 10.0 mi Calm Calm - N/A   Overcast
10:56 PM 37.4 °F - 30.2 °F 75% 30.56 in 10.0 mi Calm Calm - N/A   Overcast
11:16 PM 37.4 °F - 32.0 °F 81% 30.57 in 10.0 mi Calm Calm - N/A   Overcast
11:36 PM 35.6 °F - 32.0 °F 87% 30.57 in 10.0 mi Calm Calm - N/A   Overcast
11:56 PM 35.6 °F - 30.2 °F 81% 30.58 in 10.0 mi Calm Calm - N/A   Overcast